0006P 2008 08 14.9662 1.353724 0.612767 178.1336 138.9339 19.5151 20090618 7.5 16.0 6P/d'Arrest MPC 62880 0007P 2008 09 26.6082 1.253104 0.634826 172.3139 93.4179 22.3096 20090618 10.0 6.0 7P/Pons-Winnecke MPC 54170 0008P 2008 01 26.8949 1.028148 0.819561 207.5248 270.3490 54.9668 20090618 8.0 8.0 8P/Tuttle MPC 61707 0009P 2011 01 12.2667 1.509240 0.516901 178.9296 68.9277 10.5245 20090618 5.5 10.0 9P/Tempel MPC 62880 0010P 2010 07 4.8722 1.423146 0.536264 195.6229 117.8315 12.0227 20090618 5.0 10.0 10P/Tempel MPC 59600 0014P 2009 02 27.2831 2.724147 0.357869 158.9974 202.1187 27.9444 20090618 5.5 12.0 14P/Wolf MPC 56802 0015P 2008 06 22.5944 0.969941 0.721504 347.5067 13.7983 6.8171 20090618 12.0 4.0 15P/Finlay MPC 63377 0017P 2007 05 4.8086 2.053122 0.432857 24.3224 326.8536 19.1161 20090618 10.0 6.0 17P/Holmes MPC 51822 0019P 2008 07 22.3350 1.354434 0.624532 353.3657 75.4365 30.3244 20090618 4.5 10.0 19P/Borrelly MPC 63602 0022P 2009 05 25.4230 1.577593 0.544400 162.8224 120.8923 4.7237 20090618 3.0 10.4 22P/Kopff MPC 66205 0024P 2009 08 9.6289 1.213924 0.703600 58.0011 79.7185 11.7293 20090618 6.5 14.0 24P/Schaumasse MPC 56804 0029P 2004 07 3.1617 5.717498 0.045115 48.3485 312.6347 9.3945 20090618 4.0 4.0 29P/Schwassmann-Wachmann MPC 42666 0030P 2010 04 19.5968 1.884042 0.500791 13.2241 119.7532 8.1225 20090618 9.5 6.0 30P/Reinmuth MPC 59599 0031P 2010 09 30.3312 3.423778 0.192205 18.0697 114.1879 4.5475 20090618 5.0 8.0 31P/Schwassmann-Wachmann MPC 59600 0036P 2011 12 31.6411 3.088107 0.258516 201.8996 182.3950 9.9357 20090618 8.5 6.0 36P/Whipple MPC 62883 0043P 2010 07 1.5472 1.357198 0.595103 191.2932 250.0422 15.9772 20090618 8.0 6.0 43P/Wolf-Harrington MPC 59600 0044P 2008 02 18.4131 2.106896 0.428497 58.1213 286.6020 5.9043 20090618 8.3 6.0 44P/Reinmuth MPC 60465 0046P 2008 02 2.4601 1.056931 0.658121 356.3185 82.1665 11.7403 20090618 9.0 6.0 46P/Wirtanen MPC 60466 0047P 2009 01 31.9990 2.799127 0.319063 357.6930 356.9828 13.0531 20090618 1.0 11.2 47P/Ashbrook-Jackson MPC 56802 0049P 2011 10 18.9016 1.414468 0.601890 333.0283 118.9371 19.1063 20090618 11.3 4.4 49P/Arend-Rigaux MPC 62882 0054P 2009 11 28.5134 2.171755 0.427030 1.9406 358.8616 6.0670 20090618 10.0 6.0 54P/de Vico-Swift-NEAT MPC 56805 0057P 2008 12 25.9437 1.723741 0.500102 115.2831 188.8247 2.8485 20090618 12.5 6.0 57P/du Toit-Neujmin-Delporte MPC 54171 0059P 2009 03 7.6294 2.355532 0.475156 127.5273 313.0361 9.3412 20090618 7.0 6.0 59P/Kearns-Kwee MPC 64498 0061P 2008 09 6.1337 2.108045 0.426722 221.6446 163.1114 6.0091 20090618 6.0 10.0 61P/Shajn-Schaldach MPC 63377 0064P 2009 06 14.2955 1.377010 0.689544 96.3046 300.7414 8.9514 20090618 8.5 12.0 64P/Swift-Gehrels MPC 56803 0065P 2010 03 2.0144 2.440529 0.319539 196.5992 68.3597 10.3857 20090618 5.0 6.0 65P/Gunn MPC 59598 0067P 2009 02 28.3640 1.246496 0.640213 12.6998 50.1958 7.0408 20090618 11.0 4.0 67P/Churyumov-Gerasimenko MPC 56802 0068P 2009 01 20.9662 1.759031 0.640457 153.9745 175.3289 11.1448 20090618 10.0 4.0 68P/Klemola MPC 56802 0074P 2009 07 30.4390 3.557660 0.147587 87.2572 77.1026 6.6474 20090618 5.0 6.0 74P/Smirnova-Chernykh MPC 56804 0077P 2009 07 7.8488 2.310327 0.358113 196.6948 14.9167 24.3983 20090618 7.0 8.0 77P/Longmore MPC 56804 0081P 2010 02 22.7484 1.597838 0.537369 41.8137 136.0972 3.2375 20090618 7.0 6.0 81P/Wild MPC 59598 0082P 2010 01 12.4773 3.633291 0.121921 226.3166 239.5183 1.1264 20090618 5.0 8.0 82P/Gehrels MPC 59598 0085P 2008 12 16.3723 1.147441 0.775348 53.5862 343.4491 4.2172 20090618 6.5 8.0 85P/Boethin MPC 54171 0088P 2009 10 12.4687 1.363507 0.561966 235.9606 56.7574 4.3817 20090618 11.0 6.0 88P/Howell MPC 66205 0089P 2009 08 17.1771 2.279933 0.399320 249.3226 42.3911 12.0321 20090618 11.5 6.0 89P/Russell MPC 56804 0094P 2010 03 29.8580 2.239971 0.363010 92.8775 70.9216 6.1829 20090618 9.0 6.0 94P/Russell MPC 59599 0097P 2011 08 23.0708 2.584877 0.459505 228.7909 185.3042 17.8718 20090618 5.5 6.0 97P/Metcalf-Brewington MPC 62881 0099P 2007 01 27.2463 4.732823 0.229783 174.2474 28.2479 4.3327 20090618 4.5 6.0 99P/Kowal MPC 51821 0100P 2009 12 6.1405 1.982377 0.418754 181.7049 37.8476 25.6527 20090618 9.0 8.0 100P/Hartley MPC 56805 0104P 2010 05 4.5040 1.178977 0.638756 200.4330 235.6319 10.2706 20090618 12.5 4.0 104P/Kowal MPC 59599 0110P 2008 02 3.1772 2.487409 0.312487 167.7069 287.7388 11.6791 20090618 1.0 12.0 110P/Hartley MPC 54167 0116P 2009 07 18.8675 2.174942 0.374617 173.5919 21.0335 3.6129 20090618 2.5 10.0 116P/Wild MPC 62583 0117P 2005 12 21.0787 3.042390 0.255423 222.9909 58.9391 8.7034 20090618 2.5 8.0 117P/Helin-Roman-Alu MPC 45658 0118P 2010 01 2.3170 1.984014 0.427227 302.1383 151.8073 8.5094 20090618 12.0 4.0 118P/Shoemaker-Levy MPC 59598 0119P 2005 05 22.6847 3.039586 0.290508 181.1136 244.0744 5.1905 20090618 3.5 8.0 119P/Parker-Hartley MPC 52907 0124P 2008 04 27.3311 1.469458 0.542493 181.4997 1.2852 31.3603 20090618 13.5 2.8 124P/Mrkos MPC 54168 0126P 2010 02 22.7130 1.713301 0.696396 356.7469 357.7653 45.8278 20090618 6.0 8.0 126P/IRAS MPC 66205 0127P 2009 10 21.3258 2.195724 0.362704 6.5239 13.6877 14.3194 20090618 11.0 6.0 127P/Holt-Olmstead MPC 56805 0128P 2007 06 13.3448 3.066600 0.320257 210.3766 214.3784 4.3566 20090618 8.5 4.0 128P/Shoemaker-Holt MPC 51822 0129P 2006 02 1.6359 2.575002 0.306154 206.7090 295.4454 3.6122 20090618 11.0 4.0 129P/Shoemaker-Levy MPC 50140 0131P 2012 01 8.3197 2.419686 0.342517 179.6422 214.2180 7.3540 20090618 11.0 4.0 131P/Mueller MPC 65937 0136P 2007 10 22.6771 2.961155 0.293483 224.9585 137.5513 9.4277 20090618 11.0 4.0 136P/Mueller MPC 60282 0137P 2009 05 13.5700 1.915285 0.574498 140.8130 233.1209 4.8537 20090618 11.0 4.0 137P/Shoemaker-Levy MPC 56803 0139P 2008 04 19.4574 3.402648 0.247039 165.5401 242.4436 2.3290 20090618 9.5 4.0 139P/Vaisala-Oterma MPC 60666 0142P 2010 05 31.0320 2.487014 0.499310 175.8530 176.5414 12.3014 20090618 8.5 6.0 142P/Ge-Wang MPC 59599 0143P 2009 06 12.1981 2.538199 0.409802 320.7603 245.3684 4.6899 20090618 13.5 2.0 143P/Kowal-Mrkos MPC 56803 0144P 2009 01 26.8500 1.438946 0.627795 216.0919 245.5568 4.1092 20090618 8.5 8.0 144P/Kushida MPC 64498 0145P 2009 03 26.6161 1.891352 0.542157 10.1421 26.9025 11.2992 20090618 13.5 4.0 145P/Shoemaker-Levy MPC 56803 0148P 2008 05 22.7005 1.702227 0.537838 6.6478 89.7988 3.6784 20090618 16.0 2.0 148P/Anderson-LINEAR MPC 60927 0149P 2010 02 19.2808 2.650716 0.388630 43.7897 145.2662 29.7354 20090618 8.0 8.0 149P/Mueller MPC 59598 0150P 2008 11 25.9863 1.767730 0.545721 245.6687 272.4279 18.5004 20090618 13.5 4.0 150P/LONEOS MPC 54170 0152P 2012 07 9.1974 3.111118 0.308293 163.9179 91.9596 9.8710 20090618 11.5 4.0 152P/Helin-Lawrence MPC 65938 0157P 2010 02 20.4878 1.360651 0.601211 148.6978 300.1178 7.2782 20090618 10.0 4.0 157P/Tritton MPC 59598 0158P 2012 09 16.1616 4.581833 0.029186 231.5772 137.3095 7.9084 20090618 9.0 4.0 158P/Kowal-LINEAR MPC 65939 0162P 2010 03 8.4434 1.232823 0.596079 356.3170 31.2525 27.8166 20090618 12.0 4.0 162P/Siding Spring MPC 59599 0164P 2011 06 2.6788 1.673385 0.541309 325.9591 88.3637 16.2693 20090618 11.0 4.0 164P/Christensen MPC 62880 0166P 2002 05 13.9255 8.544769 0.382092 321.4916 64.4487 15.3718 20090618 5.5 4.0 166P/NEAT MPC 54366 0167P 2001 05 15.2309 11.814276 0.273950 344.6707 295.7675 19.0879 20090618 9.5 2.0 167P/CINEOS MPC 54367 0169P 2009 11 30.3058 0.607674 0.766786 217.9626 176.1949 11.2996 20090618 16.0 2.0 169P/NEAT MPC 56805 0172P 2008 10 13.0394 2.240841 0.362183 179.0772 40.0726 11.5158 20090618 13.0 4.0 172P/Yeung MPC 54825 0173P 2008 05 17.6109 4.213759 0.260848 29.7301 100.5580 16.4938 20090618 7.5 4.0 173P/Mueller MPC 54987 0174P 2015 04 18.1603 5.831998 0.457922 162.5215 173.3778 4.3403 20090618 9.5 2.0 174P/Echeclus CCO 17 0176P 2011 07 2.8620 2.575694 0.193297 35.9819 346.5094 0.2378 20090618 15.0 2.0 176P/LINEAR CCO 17 0179P 2007 12 2.9196 4.086299 0.308599 295.4437 115.8487 19.8745 20090618 2.5 8.0 179P/Jedicke MPC 66205 0180P 2008 05 26.8949 2.469586 0.357471 94.9824 84.7520 16.9115 20090618 11.0 4.0 180P/NEAT MPC 62583 0183P 2008 05 8.2012 3.893760 0.135160 161.5580 5.8453 18.7358 20090618 12.5 2.0 183P/Korlevic-Juric MPC 58540 0186P 2008 03 31.4062 4.267101 0.122011 280.0590 327.7751 28.8758 20090618 7.5 4.0 186P/Garradd MPC 59045 0187P 2008 10 7.9050 3.693676 0.171462 132.1825 112.0047 13.7303 20090618 9.0 4.0 187P/LINEAR MPC 62583 0188P 2007 12 16.3011 2.551973 0.416373 26.4745 359.1319 10.5465 20090618 11.5 4.0 188P/LINEAR-Mueller MPC 60099 0195P 2009 01 20.9105 4.438519 0.314772 249.6035 243.2413 36.3608 20090618 8.5 4.0 195P/Hill MPC 61438 0199P 2009 04 9.8244 2.935407 0.508476 191.9217 92.9428 24.7565 20090618 10.0 4.0 199P/Shoemaker MPC 66205 0200P 2008 08 25.3969 3.272224 0.333430 133.7682 234.8178 12.1200 20090618 9.0 4.0 200P/Larsen MPC 63139 0202P 2009 02 6.9801 2.527010 0.330880 255.5526 194.5748 2.1849 20090618 13.5 4.0 202P/Scotti MPC 64116 0203P 2010 02 8.2076 3.182182 0.314809 154.5471 290.5608 2.9760 20090618 14.5 2.0 203P/Korlevic MPC 63822 0204P 2008 12 9.2423 1.940118 0.470566 355.0258 109.1057 6.5811 20090618 14.0 4.0 204P/LINEAR-NEAT MPC 63822 0205P 2008 09 10.0725 1.526595 0.568740 154.2429 179.6274 15.3034 20090618 13.0 4.0 205P/Giacobini MPC 64116 0209P 2009 04 15.9772 0.913719 0.688937 149.7366 66.4472 19.1486 20090618 17.0 2.0 209P/LINEAR MPC 64498 0210P 2008 12 19.9698 0.534831 0.831618 345.7722 93.8844 10.2156 20090618 13.5 4.0 210P/Christensen MPC 64768 0211P 2009 05 7.7591 2.362077 0.337629 4.3916 117.2961 18.8721 20090618 12.5 4.0 211P/Hill MPC 64768 0212P 2008 12 3.2478 1.654358 0.578810 15.0383 98.9269 22.3975 20090618 17.0 2.0 212P/NEAT MPC 64768 0213P 2011 06 15.8567 2.124048 0.379727 3.1805 312.6945 10.2409 20090618 10.5 4.0 213P/Van Ness MPC 65058 0214P 2009 01 5.6146 1.843785 0.488611 190.2702 348.2598 15.2135 20090618 13.0 4.0 214P/LINEAR MPC 65058 0215P 2010 06 7.6574 3.213847 0.200791 222.3720 75.4446 12.7907 20090618 11.0 4.0 215P/NEAT MPC 65058 0216P 2008 10 10.9207 2.159822 0.443938 151.5794 359.8942 9.0356 20090618 13.0 4.0 216P/LINEAR MPC 65340 0217P 2009 09 8.9657 1.223968 0.689679 246.7441 125.6223 12.8816 20090618 12.0 4.0 217P/LINEAR MPC 65648 0218P 2009 06 22.2864 1.701439 0.490270 10.6050 226.7437 18.1516 20090618 16.0 4.0 218P/LINEAR MPC 65936 0219P 2010 03 6.0695 2.363929 0.352783 107.8189 231.0975 11.5224 20090618 11.0 4.0 219P/LINEAR MPC 65936 0220P 2009 12 15.4652 1.548585 0.502540 180.7742 150.1192 8.1325 20090618 15.0 4.0 220P/McNaught MPC 65936 0221P 2009 01 24.8669 1.783572 0.487491 39.6991 230.0164 11.4178 20090618 14.5 4.0 221P/LINEAR MPC 66206 CJ95O010 1997 03 31.2136 0.912001 0.994955 130.5960 282.8944 89.2373 20090618 -2.0 4.0 C/1995 O1 (Hale-Bopp) MPC 61436 PJ96R020 2011 10 17.6143 2.614008 0.309305 334.0316 40.1886 2.6038 20090618 11.5 4.0 P/1996 R2 (Lagerkvist) MPC 62882 PJ97T030 2015 05 7.6365 4.248499 0.363394 333.5063 63.1416 4.8428 20090618 13.0 2.0 P/1997 T3 (Lagerkvist-Carsenty) MPC 35205 PJ98U030 2014 03 18.9549 2.154983 0.646730 180.9868 303.4974 19.0787 20090618 6.5 4.0 P/1998 U3 (Jager) MPC 34421 PJ98U040 2012 04 22.7093 3.852107 0.310655 251.7540 181.5210 31.5454 20090618 8.0 4.0 P/1998 U4 (Spahr) MPC 65938 PJ98V24S 2008 05 24.8421 3.422526 0.242666 244.4082 159.1727 5.0265 20090618 13.0 2.0 P/1998 VS24 (LINEAR) MPC 54169 PJ99X69B 2009 07 25.9109 1.652120 0.630754 220.3270 256.0534 11.3060 20090618 17.5 2.0 P/1999 XB69 (LINEAR) MPC 56804 PJ99XC0N 2008 11 12.3966 3.303955 0.210999 161.5887 285.4484 5.0258 20090618 13.5 2.0 P/1999 XN120 (Catalina) MPC 54170 PK00Y030 2011 12 30.2324 3.954285 0.203698 89.2446 354.3408 2.2667 20090618 9.0 4.0 P/2000 Y3 (Scotti) MPC 65937 PK01R060 2010 03 26.2429 2.177755 0.478026 308.4599 67.3792 17.3910 20090618 13.0 4.0 P/2001 R6 (LINEAR-Skiff) MPC 59599 PK01YC7X 2011 08 25.5451 3.429978 0.176337 114.9782 31.0721 7.9166 20090618 14.5 2.0 P/2001 YX127 (LINEAR) MPC 62881 PK02Q010 2009 03 20.9533 1.551197 0.563897 185.0208 173.9959 36.2801 20090618 13.0 4.0 P/2002 Q1 (Van Ness) MPC 56803 PK02S010 2010 08 15.3457 2.416683 0.417498 38.0787 346.8471 27.0453 20090618 11.0 4.0 P/2002 S1 (Skiff) MPC 59600 PK02T010 2009 08 25.4869 1.314750 0.639319 3.8243 14.2258 21.3957 20090618 18.0 4.0 P/2002 T1 (LINEAR) MPC 56804 CK02V94Q 2006 02 6.4083 6.797644 0.963955 100.0641 34.9933 70.5628 20090618 9.5 2.0 C/2002 VQ94 (LINEAR) MPC 59874 PK02X020 2010 10 4.5240 2.126990 0.450448 351.6479 75.1344 23.5513 20090618 12.0 4.0 P/2002 X2 (NEAT) MPC 59600 PK03A010 2009 06 16.0399 1.916128 0.499922 340.2651 54.0759 44.3333 20090618 13.5 4.0 P/2003 A1 (LINEAR) MPC 56803 PK03C07P 2011 05 18.0941 3.030898 0.246260 42.6919 133.0974 12.3292 20090618 14.5 2.0 P/2003 CP7 (LINEAR-NEAT) MPC 62880 CK03W42T 2006 04 9.8888 5.189563 0.999479 92.4352 48.4373 31.4329 20090618 11.5 2.0 C/2003 WT42 (LINEAR) MPC 56169 PK04A010 2004 09 5.3551 5.489030 0.310217 21.9369 124.9777 10.5508 20090618 6.5 4.0 P/2004 A1 (LONEOS) MPC 60921 CK04B010 2006 02 7.5522 1.607247 1.001129 328.0035 272.8365 114.0969 20090618 10.5 2.0 C/2004 B1 (LINEAR) MPC 57131 CK04D010 2006 02 9.9980 4.974276 0.998540 75.5224 62.2394 45.5594 20090618 11.5 2.0 C/2004 D1 (NEAT) MPC 63599 PK04F030 2013 01 28.7411 2.871580 0.285975 176.4358 78.8214 15.9817 20090618 9.0 4.0 P/2004 F3 (NEAT) MPC 57793 PK04FE0Y 2004 08 2.1721 4.111369 0.166920 239.5776 327.1813 2.1267 20090618 12.5 2.0 P/2004 FY140 (LINEAR) MPC 54823 PK04X010 2009 09 3.3342 0.780174 0.727244 345.4439 7.1254 5.1478 20090618 17.5 4.0 P/2004 X1 (LINEAR) MPC 56804 CK05EH3L 2007 03 5.4642 3.886967 1.002253 261.4828 344.8133 130.6694 20090618 11.5 2.0 C/2005 EL173 (LONEOS) MPC 61702 PK05L010 2005 12 14.6315 3.148391 0.208839 149.9191 138.3031 7.7359 20090618 9.5 4.0 P/2005 L1 (McNaught) MPC 54559 CK05L030 2008 01 16.6949 5.594417 1.000322 47.1692 288.7450 139.4496 20090618 4.0 4.0 C/2005 L3 (McNaught) MPC 59596 PK05R25V 2006 11 4.8720 3.603153 0.166366 191.2995 246.8898 9.8851 20090618 9.5 4.0 P/2005 RV25 (LONEOS-Christensen) MPC 55978 PK05S020 2006 06 28.8925 6.397025 0.198286 229.8341 161.2107 3.1407 20090618 7.5 4.0 P/2005 S2 (Skiff) MPC 54987 CK05S040 2007 07 19.5965 5.852705 0.998940 31.5522 318.2864 107.9591 20090618 5.0 4.0 C/2005 S4 (McNaught) MPC 60464 PK05SL6B 2007 02 10.7567 3.814463 0.463330 83.4544 1.6732 24.1141 20090618 12.0 2.0 P/2005 SB216 (LONEOS) MPC 61994 CK06E010 2007 01 7.7218 6.043467 1.002988 232.8798 95.0396 83.1887 20090618 6.0 4.0 C/2006 E1 (McNaught) MPC 65935 PK06F010 2008 02 19.2664 4.119781 0.119025 186.8158 124.7611 21.2752 20090618 8.0 4.0 P/2006 F1 (Kowalski) MPC 60465 CK06K010 2007 07 20.7973 4.425710 1.002731 296.4604 72.1173 53.8615 20090618 7.5 4.0 C/2006 K1 (McNaught) MPC 62270 CK06K040 2007 11 29.5528 3.189477 0.998411 233.6591 116.6057 111.3427 20090618 6.0 4.0 C/2006 K4 (NEAT) MPC 62270 CK06O02F 2008 09 15.7012 2.431334 1.001195 95.6151 318.5067 30.1705 20090618 5.5 4.0 C/2006 OF2 (Broughton) MPC 62270 CK06P010 2007 01 12.5023 0.170818 0.999923 155.9806 267.3822 77.8744 20090618 6.0 4.0 C/2006 P1 (McNaught) MPC 59042 CK06Q010 2008 07 3.8360 2.763786 0.999456 344.3805 199.5500 59.0518 20090618 5.0 4.0 C/2006 Q1 (McNaught) MPC 61994 CK06S030 2012 04 17.1335 5.137832 0.999956 140.0348 38.3175 166.0267 20090618 2.0 4.0 C/2006 S3 (LONEOS) MPC 61702 CK06S050 2007 12 9.6103 2.628853 0.972517 182.0708 281.5451 10.1312 20090618 8.0 4.0 C/2006 S5 (Hill) MPC 60465 PK06T010 2012 01 12.4685 1.004018 0.668519 179.6995 279.7868 18.2947 20090618 10.5 4.0 P/2006 T1 (Levy) MPC 65937 CK06U060 2008 06 5.5096 2.498351 0.998909 276.6034 180.1813 84.8889 20090618 8.0 4.0 C/2006 U6 (Spacewatch) MPC 66204 CK06V010 2007 11 25.7054 2.669531 0.987734 253.3800 335.5343 31.3339 20090618 8.0 4.0 C/2006 V1 (Catalina) MPC 62580 CK06W030 2009 07 6.6617 3.126204 1.000035 133.5190 113.5726 127.0735 20090618 5.0 4.0 C/2006 W3 (Christensen) MPC 61436 CK07B020 2008 08 21.0154 2.975585 0.996174 206.0569 14.8543 27.4943 20090618 6.0 4.0 C/2007 B2 (Skiff) MPC 61178 PK07C020 2007 09 4.0923 3.777338 0.462243 179.3846 276.0925 8.6728 20090618 10.0 4.0 P/2007 C2 (Catalina) MPC 60922 CK07D010 2007 06 16.7094 8.790756 0.996066 340.0483 171.0916 41.5438 20090618 3.5 4.0 C/2007 D1 (LINEAR) MPC 61436 CK07D030 2007 05 27.5181 5.206643 0.992580 309.0514 148.4250 45.9229 20090618 7.5 4.0 C/2007 D3 (LINEAR) MPC 61436 CK07G010 2008 11 16.3408 2.647289 1.001682 223.9923 78.9954 88.3305 20090618 5.5 4.0 C/2007 G1 (LINEAR) MPC 62270 PK07H010 2007 08 17.9496 2.281534 0.378414 202.6987 144.3642 11.8750 20090618 10.0 4.0 P/2007 H1 (McNaught) MPC 62270 CK07K030 2008 04 21.6235 2.050952 1.000560 23.5785 263.2478 16.2989 20090618 9.5 4.0 C/2007 K3 (Siding Spring) MPC 63599 CK07M010 2008 08 12.2909 7.475474 0.995299 52.6726 326.8069 139.7209 20090618 6.0 4.0 C/2007 M1 (McNaught) MPC 63376 CK07M020 2008 12 8.5886 3.540928 0.998824 220.6743 357.2884 80.9543 20090618 8.0 4.0 C/2007 M2 (Catalina) MPC 61437 CK07N030 2009 01 10.6436 1.212240 1.000046 136.8685 338.5413 178.3737 20090618 6.5 4.0 C/2007 N3 (Lulin) MPC 65054 CK07Q030 2009 10 7.2884 2.251609 1.000186 2.0977 149.4133 65.6504 20090618 4.5 4.0 C/2007 Q3 (Siding Spring) MPC 61437 PK07R010 2007 08 24.3041 4.353050 0.278379 175.2147 181.6491 7.8745 20090618 8.0 4.0 P/2007 R1 (Larson) MPC 65645 CK07S020 2008 09 14.1895 5.557603 0.556575 210.4160 296.2403 16.8589 20090618 6.5 4.0 C/2007 S2 (Lemmon) MPC 64767 CK07T050 2008 05 23.9873 4.048838 0.912671 34.3831 109.8381 45.6142 20090618 8.0 4.0 C/2007 T5 (Gibbs) MPC 65935 CK07U010 2008 08 7.1273 3.329628 1.001234 0.9545 50.0490 157.7880 20090618 9.0 4.0 C/2007 U1 (LINEAR) MPC 63599 CK07V53O 2010 04 26.3877 4.842790 0.999716 75.0166 59.7467 86.9971 20090618 7.0 4.0 C/2007 VO53 (Spacewatch) MPC 63821 CK07W010 2008 06 24.8630 0.849927 0.999966 306.5560 334.5155 9.8889 20090618 9.5 4.0 C/2007 W1 (Boattini) MPC 63599 CK07Y020 2008 04 8.5463 4.209933 0.995860 257.7202 303.4647 98.5015 20090618 9.0 4.0 C/2007 Y2 (McNaught) MPC 62271 CK08A010 2008 09 29.1134 1.073131 1.000345 348.4669 277.8842 82.5485 20090618 6.5 4.0 C/2008 A1 (McNaught) MPC 65935 CK08C010 2008 04 16.7913 1.262493 0.999757 180.9191 307.7834 61.7845 20090618 10.0 4.0 C/2008 C1 (Chen-Gao) MPC 62582 PK08C94L 2006 06 26.5469 5.429566 0.119589 81.6900 33.4550 8.3507 20090618 8.0 4.0 P/2008 CL94 (Lemmon) MPC 65645 CK08E010 2008 08 11.7378 4.828747 0.548351 269.9816 189.0141 35.0401 20090618 7.0 4.0 C/2008 E1 (Catalina) MPC 64113 CK08E030 2008 08 2.5170 5.531405 0.997724 218.1254 105.6746 105.0762 20090618 6.0 4.0 C/2008 E3 (Garradd) MPC 62879 CK08F75K 2010 09 28.9906 4.511767 1.003137 80.3870 218.2565 61.1650 20090618 5.0 4.0 C/2008 FK75 (Lemmon-Siding Spring) MPC 64767 CK08G010 2009 01 12.2068 3.989081 0.988828 63.7466 215.9154 72.8483 20090618 9.5 4.0 C/2008 G1 (Gibbs) MPC 63136 CK08H010 2008 03 16.3566 2.760019 0.945529 96.0334 34.6347 75.5021 20090618 10.5 4.0 C/2008 H1 (LINEAR) MPC 63137 CK08J010 2008 07 13.2909 1.724501 0.989805 68.1356 273.4219 61.7760 20090618 10.0 4.0 C/2008 J1 (Boattini) MPC 65054 PK08J020 2008 03 20.7091 2.406232 0.309138 131.6861 98.2503 10.2581 20090618 9.0 4.0 P/2008 J2 (Beshore) MPC 63376 PK08J030 2009 03 10.7435 2.287176 0.412325 4.4132 9.8559 25.3993 20090618 12.0 4.0 P/2008 J3 (McNaught) MPC 64496 PK08L020 2008 08 18.6577 2.317579 0.613934 141.3378 217.9818 25.8582 20090618 12.5 4.0 P/2008 L2 (Hill) MPC 65054 CK08N010 2009 09 25.8756 2.783626 0.997157 100.8103 357.4721 115.5204 20090618 9.0 4.0 C/2008 N1 (Holmes) MPC 65935 PK08O020 2009 04 21.8352 3.803640 0.153411 27.4993 325.8604 9.5183 20090618 9.0 4.0 P/2008 O2 (McNaught) MPC 64497 CK08P010 2009 07 22.8941 3.896170 1.001940 11.8559 357.6762 64.3068 20090618 7.0 4.0 C/2008 P1 (Garradd) MPC 64114 CK08Q010 2008 12 30.1632 2.959230 0.995065 104.4881 9.3061 118.6282 20090618 10.0 4.0 C/2008 Q1 (Maticic) MPC 65935 CK08Q030 2009 06 23.0976 1.798200 0.999695 340.8585 219.7347 140.7056 20090618 10.0 4.0 C/2008 Q3 (Garradd) MPC 66204 CK08R030 2008 11 22.5040 1.909001 0.895991 84.1627 270.5589 43.2369 20090618 13.0 4.0 C/2008 R3 (LINEAR) MPC 64115 CK08S030 2011 06 4.2143 8.022239 1.001951 39.7633 54.9323 162.7071 20090618 4.0 4.0 C/2008 S3 (Boattini) MPC 65340 PK08T010 2008 02 26.8058 3.043919 0.281017 35.9901 291.7400 2.0830 20090618 11.0 4.0 P/2008 T1 (Boattini) MPC 65340 CK08T020 2009 06 13.2412 1.202248 1.000055 215.8691 309.6783 56.3040 20090618 6.0 4.0 C/2008 T2 (Cardinal) MPC 65340 PK08T040 2008 12 23.9398 2.511871 0.435290 1.2547 44.6812 6.3262 20090618 13.5 4.0 P/2008 T4 (Hill) MPC 64498 PK08W96Z 2009 01 23.9212 1.646287 0.509801 337.6262 59.1095 6.9576 20090618 13.5 4.0 P/2008 WZ96 (LINEAR) MPC 66204 CK08X030 2008 10 10.5647 1.901834 0.956376 140.7863 337.7518 66.4755 20090618 13.0 4.0 C/2008 X3 (LINEAR) MPC 65057 PK08Y010 2009 02 25.0975 1.271954 0.734917 162.3651 259.7089 8.8050 20090618 15.0 4.0 P/2008 Y1 (Boattini) MPC 65935 PK08Y020 2009 01 22.3866 1.638417 0.543568 162.3296 330.8940 7.2754 20090618 16.0 4.0 P/2008 Y2 (Gibbs) MPC 65936 PK08Y030 2009 01 11.8115 4.434219 0.447499 238.2643 262.9293 38.8123 20090618 8.5 4.0 P/2008 Y3 (McNaught) MPC 65936 PK09B010 2009 02 6.2105 2.426618 0.637439 128.5978 297.4359 22.2290 20090618 13.0 4.0 P/2009 B1 (Boattini) MPC 65058 CK09B020 2009 03 7.4007 2.327630 0.944597 192.4999 18.8168 156.8743 20090618 12.5 4.0 C/2009 B2 (LINEAR) MPC 65647 CK09E010 2009 04 7.9214 0.599726 0.985034 48.9579 105.9620 127.4520 20090618 11.5 4.0 C/2009 E1 (Itagaki) MPC 66204 CK09F010 2009 06 25.8905 1.830634 0.982668 219.5848 357.9500 171.3756 20090618 15.0 4.0 C/2009 F1 (Larson) MPC 66204 CK09F020 2009 11 14.3572 5.875168 0.983381 336.3645 214.0626 59.3488 20090618 6.0 4.0 C/2009 F2 (McNaught) MPC 66204 CK09F040 2011 12 31.2686 5.455729 1.003681 260.3423 53.5642 79.3215 20090618 3.0 4.0 C/2009 F4 (McNaught) MPC 66204 CK09F050 2008 11 4.8116 2.245219 0.971781 297.3612 219.0645 84.9882 20090618 10.0 4.0 C/2009 F5 (McNaught) MPC 66204 CK09F060 2009 05 7.4412 1.274067 0.997043 129.7784 278.6795 85.7667 20090618 6.0 4.0 C/2009 F6 (Yi-SWAN) MPC 66204 CK09G010 2009 04 16.5007 1.128700 0.997473 175.4383 120.6332 108.3101 9.0 4.0 C/2009 G1 (STEREO) MPEC 2009-L34 PK09K010 2009 06 25.8988 1.323147 0.640222 27.0484 172.7858 5.7467 17.0 4.0 P/2009 K1 (Gibbs) MPEC 2009-M49 CK09K020 2010 02 7.4812 3.244857 1.000000 147.7389 123.7818 66.8264 10.0 4.0 C/2009 K2 (Catalina) MPEC 2009-M50 CK09K030 2011 01 9.266 3.90156 1.00000 251.413 0.032 146.680 8.5 4.0 C/2009 K3 (Beshore) MPC 66205 CK09K040 2009 06 18.950 1.55854 1.00000 127.191 29.880 34.809 13.0 4.0 C/2009 K4 (Gibbs) MPEC 2009-M25 CK09K050 2010 04 30.073 1.42146 1.00000 66.229 257.879 103.856 7.5 4.0 C/2009 K5 (McNaught) MPEC 2009-M26 PK09L020 2009 05 21.711 1.29714 0.62456 346.918 259.318 16.219 15.0 4.0 P/2009 L2 (Yang-Gao) MPEC 2009-M51